Wind_Speed
15 14 14 14 14 14 14 13 13 14 15 17 18 19 19 20 21 22 22 21 21 21 22 22 22 23 23 22 22 23 23 23 24 24 24 24 24 24 24 24 25 25 26
15 14 14 14 14 14 14 14 14 15 16 16 17 18 19 20 21 22 22 22 22 22 23 23 23 23 24 24 24 24 25 25 25 25 26 26 26 27 27 27 27 28 29
13 13 14 15 15 15 15 15 16 15 16 17 18 18 19 19 20 21 22 23 23 23 23 24 24 24 25 25 25 26 27 27 27 28 29 29 28 28 29 29 29 30 31
13 13 14 15 15 15 15 16 15 15 16 17 17 18 19 19 21 22 22 22 23 23 24 24 25 25 25 25 26 27 28 28 29 29 29 29 29 30 30 30 31 31 32
13 14 15 15 15 15 15 15 15 14 15 15 17 17 18 19 20 21 22 22 23 23 24 24 24 25 25 26 26 27 28 28 29 29 29 30 30 30 30 31 32 33 34
14 14 14 15 16 15 15 14 15 16 16 16 17 18 18 18 19 21 21 21 22 23 23 24 24 26 25 25 25 26 28 28 28 28 29 30 30 31 32 32 33 34 35
16 15 15 16 16 16 16 16 16 16 16 17 18 18 18 18 19 20 21 22 23 24 25 25 25 25 25 26 26 26 27 27 28 29 30 31 32 32 33 34 35 36 37
17 17 16 16 17 17 17 17 17 18 17 17 17 18 18 18 19 19 20 21 21 22 24 25 25 26 26 25 25 26 27 28 28 30 31 32 33 34 35 35 36 36 37
17 17 17 17 17 17 18 18 18 18 17 18 18 18 18 19 18 19 20 20 21 21 22 23 23 23 23 23 25 26 27 28 29 31 32 33 34 34 35 36 37 39 40
18 18 17 17 17 17 17 18 18 18 19 19 19 18 19 19 20 21 21 21 22 23 23 23 23 22 23 24 25 27 28 29 30 31 32 33 33 35 36 37 39 41 42
19 18 18 17 17 18 17 18 18 19 20 20 20 20 20 20 20 20 21 22 23 23 23 24 24 24 24 25 26 28 29 30 32 33 33 34 35 36 38 40 41 42 44
20 19 18 18 18 18 18 18 18 19 20 19 19 20 21 22 22 22 22 22 23 24 24 24 25 25 26 26 28 29 30 31 32 33 34 36 38 39 40 41 42 44 45
20 20 20 20 19 19 19 19 19 19 20 20 20 21 22 22 22 22 22 23 24 25 25 25 26 26 27 28 30 31 32 33 34 35 36 38 39 40 41 42 42 43 44
21 21 20 20 20 19 19 19 20 21 21 21 21 22 22 22 22 23 23 23 24 25 26 26 27 28 29 31 31 32 33 34 35 36 37 39 40 41 41 42 43 43 43
22 21 21 21 20 20 19 19 20 21 21 22 22 22 23 23 23 24 24 24 25 26 27 28 29 31 32 33 33 34 34 35 36 37 38 39 40 41 42 42 42 42 42
22 22 22 21 20 20 19 20 20 20 21 21 22 22 23 23 23 24 25 25 25 26 28 29 30 32 33 33 34 35 35 36 37 38 39 40 40 41 41 41 41 41 41
23 22 21 20 20 20 20 20 20 20 20 21 21 22 23 23 24 25 25 26 27 28 30 31 32 32 33 34 35 36 37 37 38 38 39 40 40 40 40 40 40 40 40
22 22 21 20 20 20 21 21 20 21 22 21 21 22 23 24 25 26 26 27 28 30 31 31 32 33 34 34 35 36 36 37 37 38 39 39 40 40 40 39 39 39 40
22 21 20 20 20 19 20 20 21 22 22 22 22 23 24 25 26 27 28 29 30 31 31 32 33 33 34 35 36 36 36 37 38 38 38 39 39 39 38 38 38 38 38
21 20 19 19 19 19 21 21 22 22 22 23 23 24 26 27 28 28 29 30 30 31 32 32 33 33 34 34 35 36 36 37 37 37 37 37 37 37 37 37 37 36 36
18 18 18 18 19 20 21 22 22 23 23 24 25 26 28 28 29 30 30 31 31 31 32 33 33 34 34 35 35 35 36 36 36 36 36 36 36 36 36 36 35 35 35
18 18 18 19 20 21 22 22 23 24 25 26 27 28 29 29 29 30 30 31 32 32 33 33 34 34 34 35 35 36 36 36 36 36 36 36 36 35 35 35 34 34 33
18 19 20 21 21 22 23 24 25 26 27 28 28 29 30 30 30 31 31 32 32 33 33 34 34 35 35 36 36 36 36 36 36 35 35 35 35 34 34 33 33 32 32
18 20 20 21 22 22 23 24 25 27 28 28 29 29 30 31 31 31 32 32 33 34 34 34 35 36 36 36 36 36 35 35 34 33 33 32 32 31 31 30 30 29 29
18 19 19 20 21 22 23 24 26 27 27 28 29 29 30 30 31 31 32 32 33 34 35 35 35 35 36 35 35 34 33 33 32 31 30 30 29 29 29 28 27 26 26
18 19 20 21 22 23 24 25 25 26 27 28 29 30 31 32 32 32 32 33 33 34 34 34 34 34 33 32 32 31 30 30 29 29 29 28 28 27 27 26 25 25 24
Wind_Direction
273 269 271 276 278 274 270 269 269 266 261 258 256 253 253 254 255 254 256 258 259 259 260 261 264 266 266 268 268 270 271 273 275 275 276 276 277 278 277 277 277 279 280
271 270 272 276 277 276 269 266 267 268 263 260 259 257 258 258 257 256 256 259 260 260 262 263 264 267 267 268 268 268 269 271 273 275 276 277 279 279 279 279 279 280 280
274 276 277 279 279 278 273 269 267 267 267 263 263 262 262 260 258 256 256 259 260 262 262 265 266 267 269 268 268 269 269 271 273 276 277 278 279 280 281 283 283 284 283
280 280 280 281 279 279 278 273 268 266 267 264 266 266 264 262 262 260 258 260 261 262 263 265 266 268 268 267 270 271 273 274 275 276 276 277 279 280 282 283 284 285 286
285 282 280 279 280 280 276 271 270 271 271 271 270 272 267 263 264 264 264 264 263 264 264 266 268 269 270 271 273 273 274 277 279 279 279 279 279 280 281 283 283 285 286
285 285 283 278 277 279 276 273 272 273 272 273 276 276 273 268 266 266 266 266 265 265 266 268 269 270 272 274 274 275 276 278 279 280 282 281 281 281 282 283 284 285 286
286 285 282 280 277 279 278 276 275 277 276 276 277 277 276 273 271 270 271 271 269 267 267 269 269 271 274 273 273 275 278 280 281 282 282 282 283 283 284 284 285 286 286
287 285 283 281 278 279 279 277 277 278 279 279 279 277 278 278 277 276 275 276 276 276 273 272 273 274 274 274 275 278 280 281 281 282 283 283 285 286 286 287 288 287 287
287 285 284 283 282 280 277 276 278 280 282 281 278 278 279 280 279 280 280 280 281 281 283 282 281 279 279 280 280 281 283 284 285 285 285 286 287 288 289 290 291 290 290
286 285 284 281 281 282 278 277 278 278 280 280 278 278 281 282 281 281 281 282 283 284 284 284 285 284 282 282 284 286 288 289 288 289 291 291 290 290 291 292 293 293 293
284 284 282 280 281 281 278 276 277 278 278 278 279 279 280 281 282 283 283 283 285 286 285 285 287 289 288 289 289 289 290 291 291 292 292 294 295 295 295 295 295 295 295
283 282 279 279 279 277 277 276 277 278 279 280 280 278 279 280 280 284 288 289 289 288 288 288 289 289 289 289 289 290 290 292 293 293 293 294 295 295 295 296 295 295 296
281 282 280 278 279 277 277 277 277 279 279 279 279 280 283 284 282 285 289 290 291 291 289 289 290 290 290 290 291 293 294 295 295 296 295 295 295 296 296 296 296 296 296
279 280 281 280 280 277 277 278 277 277 278 281 282 283 286 284 283 284 285 287 289 291 292 292 293 293 294 294 294 295 296 296 297 297 298 298 298 297 297 297 297 296 295
278 278 279 278 276 277 277 279 282 281 280 282 283 284 285 283 283 285 286 287 289 291 292 293 293 294 295 296 297 299 299 299 300 300 300 300 299 299 300 299 299 297 296
277 277 276 275 274 276 277 279 283 283 282 283 284 284 285 284 284 287 289 289 292 294 295 296 296 297 297 298 299 300 301 301 301 301 301 301 301 301 301 301 300 299 298
276 276 276 274 276 276 277 277 279 281 284 285 285 286 287 287 287 289 290 290 291 294 296 297 298 300 301 301 301 301 301 302 302 302 302 302 302 303 303 303 302 301 300
272 274 274 275 276 275 275 276 279 282 284 286 287 287 288 290 290 291 292 292 294 296 298 299 300 301 302 303 303 303 303 303 303 303 303 303 304 304 304 303 303 302 302
269 271 273 274 274 273 274 277 281 283 283 284 287 289 291 292 291 292 293 294 296 298 299 301 301 302 303 304 304 304 304 304 304 304 304 304 304 305 304 304 303 303 303
268 269 271 273 276 277 278 280 281 283 284 286 289 290 291 291 291 292 294 295 297 299 300 301 302 303 304 305 305 305 305 305 305 305 306 306 306 306 306 306 305 305 305
267 267 269 272 276 278 280 282 283 284 286 288 289 290 292 292 291 292 294 296 296 298 299 300 302 303 304 305 305 306 306 307 307 307 307 307 307 306 306 306 306 306 306
265 269 270 273 276 280 282 283 285 287 288 289 290 290 291 292 293 294 295 296 298 299 300 301 303 304 305 306 306 307 307 307 307 307 307 307 307 307 307 307 307 307 307
269 271 273 275 279 281 284 286 287 288 289 289 291 292 293 294 295 295 296 297 298 299 300 301 302 303 304 305 305 305 305 306 306 306 307 307 308 308 308 308 309 309 309
272 273 276 278 282 284 286 288 289 290 291 291 292 294 295 295 296 296 297 298 299 300 301 302 302 303 303 304 304 304 304 305 305 306 307 308 309 310 310 311 312 312 312
276 278 280 282 284 286 288 290 292 292 293 294 295 296 297 298 297 298 298 299 300 301 303 303 303 304 304 304 304 304 304 305 306 307 308 309 310 311 312 313 313 314 314
282 284 285 286 287 288 290 292 293 294 295 296 297 297 298 298 298 298 298 299 301 303 304 305 305 305 304 305 305 306 306 307 307 308 308 309 310 311 313 313 314 314 315
Height
5852 5853 5853 5854 5854 5854 5853 5853 5854 5854 5855 5856 5857 5858 5860 5861 5862 5863 5864 5865 5866 5867 5868 5869 5869 5870 5870 5871 5871 5871 5872 5872 5872 5872 5871 5871 5870 5870 5869 5869 5868 5868 5867
5849 5850 5850 5851 5851 5850 5850 5850 5851 5851 5852 5852 5853 5854 5856 5857 5857 5858 5859 5860 5861 5862 5863 5863 5864 5864 5864 5865 5865 5865 5866 5866 5866 5865 5865 5864 5864 5863 5862 5862 5861 5861 5860
5846 5847 5847 5847 5847 5847 5846 5847 5847 5847 5848 5849 5849 5850 5851 5852 5852 5853 5854 5855 5856 5857 5857 5858 5858 5858 5859 5859 5859 5859 5859 5859 5859 5859 5858 5857 5857 5856 5855 5854 5853 5852 5851
5843 5844 5844 5844 5844 5843 5843 5843 5843 5844 5844 5845 5845 5846 5846 5846 5847 5848 5848 5849 5850 5851 5851 5852 5852 5852 5852 5852 5852 5852 5852 5852 5851 5851 5851 5850 5849 5848 5848 5847 5845 5844 5843
5841 5841 5841 5840 5840 5840 5839 5840 5840 5841 5841 5841 5841 5841 5841 5841 5842 5842 5843 5843 5844 5845 5845 5846 5846 5846 5846 5846 5845 5845 5845 5844 5844 5843 5843 5842 5841 5840 5839 5838 5837 5836 5834
5838 5838 5837 5837 5836 5836 5836 5836 5837 5837 5837 5837 5837 5837 5836 5837 5837 5837 5837 5838 5838 5839 5839 5839 5840 5840 5840 5839 5839 5838 5837 5837 5836 5835 5835 5834 5833 5832 5830 5829 5827 5826 5824
5835 5834 5834 5833 5833 5833 5832 5833 5833 5833 5833 5833 5833 5833 5833 5832 5832 5832 5832 5833 5833 5833 5833 5833 5833 5833 5833 5832 5832 5831 5830 5829 5829 5828 5827 5826 5824 5823 5822 5820 5818 5816 5814
5830 5830 5830 5830 5829 5829 5829 5829 5829 5829 5829 5829 5829 5829 5829 5828 5828 5828 5828 5827 5827 5827 5827 5827 5827 5827 5826 5825 5825 5824 5823 5822 5821 5820 5819 5818 5816 5814 5812 5811 5808 5806 5804
5827 5826 5826 5826 5825 5825 5825 5825 5825 5825 5825 5825 5825 5825 5825 5824 5824 5824 5823 5823 5822 5822 5821 5821 5820 5820 5819 5818 5818 5817 5816 5815 5813 5812 5810 5808 5806 5804 5802 5800 5798 5795 5793
5823 5822 5822 5822 5821 5821 5820 5821 5821 5821 5821 5821 5821 5821 5821 5820 5820 5819 5819 5818 5818 5817 5816 5815 5814 5813 5812 5811 5811 5809 5808 5806 5805 5803 5801 5798 5796 5794 5792 5789 5786 5784 5781
5819 5818 5818 5817 5817 5817 5817 5817 5817 5817 5817 5817 5816 5817 5816 5816 5815 5814 5814 5813 5812 5811 5810 5809 5808 5807 5806 5805 5803 5802 5800 5798 5796 5794 5791 5789 5787 5784 5781 5778 5775 5771 5768
5814 5814 5813 5813 5813 5813 5813 5812 5812 5812 5812 5812 5812 5811 5811 5811 5810 5809 5808 5807 5806 5805 5804 5802 5801 5800 5799 5797 5796 5794 5792 5789 5787 5784 5782 5779 5776 5774 5770 5767 5763 5759 5755
5809 5809 5809 5809 5808 5808 5808 5808 5807 5807 5807 5806 5806 5806 5805 5804 5804 5803 5802 5801 5800 5798 5797 5796 5794 5793 5791 5789 5787 5785 5782 5780 5777 5774 5772 5769 5766 5762 5758 5754 5750 5746 5742
5804 5804 5804 5804 5803 5803 5803 5803 5802 5802 5802 5801 5800 5800 5799 5798 5798 5797 5796 5795 5793 5792 5790 5788 5787 5785 5783 5781 5778 5776 5773 5770 5767 5764 5761 5758 5754 5750 5746 5742 5738 5734 5730
5799 5799 5799 5798 5798 5798 5798 5798 5797 5797 5796 5796 5795 5794 5794 5793 5792 5791 5789 5788 5787 5785 5783 5782 5780 5777 5775 5772 5769 5766 5763 5760 5757 5753 5749 5746 5742 5738 5734 5729 5725 5721 5717
5793 5793 5793 5793 5793 5793 5792 5792 5792 5791 5791 5790 5789 5789 5787 5787 5785 5784 5782 5781 5779 5777 5776 5773 5771 5769 5766 5763 5760 5757 5753 5750 5746 5742 5738 5734 5730 5725 5721 5717 5712 5708 5704
5787 5787 5787 5787 5787 5787 5787 5787 5787 5786 5785 5785 5784 5783 5781 5780 5779 5777 5775 5774 5772 5770 5768 5765 5762 5759 5756 5753 5750 5747 5743 5739 5735 5731 5727 5722 5718 5714 5709 5705 5701 5696 5692
5781 5781 5782 5782 5782 5782 5781 5781 5781 5780 5780 5778 5778 5776 5775 5773 5772 5770 5768 5766 5764 5762 5759 5756 5753 5750 5747 5744 5740 5736 5733 5729 5724 5720 5716 5711 5707 5702 5698 5694 5689 5685 5681
5775 5776 5776 5776 5776 5776 5776 5775 5775 5775 5774 5772 5771 5770 5768 5767 5765 5763 5761 5759 5757 5754 5751 5748 5745 5741 5738 5734 5730 5726 5722 5718 5714 5710 5705 5701 5696 5692 5687 5683 5679 5674 5670
5770 5770 5770 5771 5771 5771 5770 5770 5769 5768 5767 5766 5765 5763 5762 5760 5758 5756 5753 5751 5748 5746 5742 5739 5736 5732 5728 5725 5721 5717 5713 5708 5704 5700 5695 5690 5686 5681 5677 5673 5668 5664 5660
5764 5765 5765 5765 5765 5765 5764 5763 5763 5762 5761 5759 5758 5756 5754 5752 5750 5748 5745 5742 5740 5737 5733 5730 5727 5723 5719 5715 5711 5707 5703 5698 5694 5690 5685 5681 5676 5672 5667 5663 5659 5654 5650
5759 5760 5760 5760 5759 5759 5758 5757 5756 5755 5754 5752 5750 5748 5746 5744 5742 5739 5736 5734 5731 5728 5724 5721 5717 5713 5709 5705 5701 5697 5693 5689 5684 5680 5676 5672 5667 5663 5658 5654 5650 5645 5641
5754 5754 5754 5754 5753 5753 5752 5751 5749 5748 5746 5744 5743 5740 5738 5736 5733 5730 5727 5724 5721 5718 5715 5711 5707 5704 5700 5696 5691 5687 5683 5679 5675 5671 5667 5662 5658 5654 5650 5645 5641 5637 5633
5749 5749 5748 5748 5747 5746 5745 5743 5742 5740 5738 5736 5734 5732 5730 5727 5724 5721 5718 5715 5712 5708 5705 5701 5697 5693 5690 5685 5681 5677 5673 5669 5665 5661 5658 5654 5650 5646 5642 5637 5633 5629 5625
5744 5743 5742 5742 5741 5739 5738 5736 5734 5732 5730 5728 5726 5723 5721 5718 5715 5712 5709 5706 5702 5699 5695 5692 5688 5683 5679 5675 5672 5668 5664 5660 5657 5653 5649 5646 5642 5638 5634 5631 5627 5623 5619
5738 5737 5736 5735 5734 5732 5731 5729 5727 5725 5722 5720 5717 5715 5712 5709 5706 5703 5700 5696 5693 5690 5686 5682 5678 5674 5670 5666 5662 5659 5655 5652 5649 5645 5642 5638 5635 5631 5628 5624 5621 5617 5613